Probability
16 23 32 74 77 29 3 0 0 0 0 0 0 0 0 0 0 3 6 3 3 16 19 45 71 65 52 58 61 68 61 58 61 65 65 68 65 61 61 65 65 65 58 61 65 65 55 55 48
26 32 71 74 39 0 0 0 0 0 0 0 0 0 0 0 0 3 3 6 10 23 29 32 65 68 61 52 58 65 65 61 61 61 61 68 65 58 55 55 65 65 68 58 61 65 52 48 55
42 68 77 61 10 0 0 0 0 0 0 0 0 0 0 0 0 0 6 10 23 29 32 58 71 65 58 55 55 55 58 58 58 58 61 61 61 58 55 52 55 58 61 61 58 61 52 42 52
74 81 65 23 3 0 0 0 0 0 0 0 0 0 0 0 3 0 10 10 16 26 23 52 81 61 58 58 52 45 48 52 55 55 68 68 58 55 48 45 42 48 52 61 61 58 42 45 42
77 61 26 6 0 0 0 0 0 0 0 0 0 3 3 3 0 6 10 13 13 23 23 32 71 71 61 61 52 55 58 52 55 61 68 68 65 55 58 55 48 52 52 61 61 55 52 39 23
55 29 13 0 0 0 0 0 0 0 0 0 6 3 6 10 3 6 10 16 13 23 23 35 77 81 77 65 58 65 58 55 61 55 61 65 61 55 48 48 45 52 52 65 61 55 42 23 29
23 6 0 0 0 0 0 0 0 0 0 0 3 0 0 10 10 16 16 29 19 26 35 39 39 58 74 74 65 55 52 52 61 52 55 55 52 55 55 48 45 45 48 55 48 45 42 32 26
6 3 0 0 0 0 0 0 0 0 0 0 0 0 3 16 16 32 35 35 29 32 29 35 32 39 32 42 68 74 65 61 55 58 58 61 58 58 58 61 58 52 55 42 42 32 39 29 35
3 3 0 0 0 0 0 0 0 0 3 3 3 6 6 10 19 26 35 35 39 39 35 29 35 35 32 23 39 65 65 68 55 61 61 61 55 42 45 39 55 45 45 45 42 39 32 39 39
0 3 0 0 0 0 0 0 3 3 3 10 3 10 10 10 19 19 29 39 35 39 35 42 48 35 29 32 48 65 48 61 65 71 71 68 68 52 32 52 65 52 48 52 55 52 39 32 16
0 0 0 0 0 0 0 0 3 3 3 6 16 10 13 10 10 19 29 29 32 39 42 42 42 58 52 55 55 61 55 74 55 65 65 68 52 52 42 39 42 52 45 32 35 29 29 29 39
0 0 0 0 0 0 0 0 0 3 3 3 10 13 10 13 10 13 26 29 32 39 39 45 45 65 81 71 71 74 61 61 52 71 68 61 68 58 55 65 55 61 55 61 39 52 39 39 42
0 0 0 0 0 0 0 0 0 0 3 6 13 10 13 13 13 16 23 32 39 35 42 58 77 81 87 87 84 71 68 55 58 77 77 71 61 68 65 71 71 61 61 58 52 48 48 45 35
0 0 0 0 0 3 0 0 0 0 0 0 6 6 10 13 16 19 19 35 48 52 68 74 84 84 84 90 90 81 61 87 68 74 71 74 71 77 77 68 81 74 68 61 61 55 61 52 42
0 0 0 0 0 0 0 0 0 0 0 3 3 3 6 6 19 23 23 42 48 65 74 77 77 81 87 84 84 68 65 58 71 77 77 74 71 77 77 77 84 71 65 48 55 55 58 58 52
0 0 0 0 0 0 0 0 0 0 0 3 6 10 16 10 10 19 26 48 68 68 84 84 45 77 87 90 90 74 74 81 81 81 81 81 84 87 81 81 74 84 71 61 68 65 55 58 61
0 0 0 0 0 0 0 0 0 0 3 0 6 10 19 16 16 16 16 42 68 84 90 87 90 94 90 87 94 87 87 90 87 84 84 84 84 84 87 84 84 81 77 71 45 65 58 58 61
0 0 0 0 0 0 0 0 0 3 0 0 10 10 23 23 19 19 29 39 68 77 90 94 97 97 94 90 94 94 87 87 87 87 84 87 84 81 87 74 84 77 68 77 65 65 68 65 68
0 0 0 0 0 0 0 3 0 3 3 6 13 23 23 23 26 29 26 32 55 77 90 97 97 100 100 97 90 87 84 87 87 84 81 84 84 77 77 77 81 81 74 74 68 71 68 65 61
0 0 0 0 0 0 0 0 3 3 6 10 16 23 26 32 35 39 35 42 55 81 87 94 97 97 100 100 100 97 87 90 87 84 81 81 81 74 65 77 74 74 74 71 77 71 71 58 65
0 0 0 0 0 0 0 0 6 10 6 6 13 19 19 19 32 55 45 58 61 81 90 87 94 97 97 97 90 94 87 81 81 77 81 77 77 65 68 65 68 81 74 68 71 74 71 61 61
0 0 0 0 0 0 0 0 3 10 10 16 13 19 23 26 35 55 65 71 74 87 87 94 97 94 97 97 94 90 84 81 81 84 84 84 77 74 61 61 65 71 71 74 68 65 68 58 52
0 0 0 0 0 0 0 0 10 16 26 29 26 29 23 35 32 61 65 71 71 74 87 87 97 97 100 100 97 94 90 87 81 84 84 81 81 77 68 68 61 74 68 68 68 71 71 71 58
0 0 0 0 0 0 3 0 10 6 19 29 26 26 32 35 42 55 68 77 81 81 87 87 97 97 97 94 94 94 90 87 87 84 84 81 81 77 71 74 74 77 68 74 71 68 65 58 65
0 0 0 0 3 3 3 0 13 6 13 23 23 29 29 45 52 55 61 74 81 84 90 87 94 94 94 90 90 90 90 87 87 87 84 84 84 81 77 77 81 77 74 71 74 68 61 58 58
0 0 0 0 0 0 3 3 13 3 3 3 19 35 35 32 45 52 58 68 68 74 84 84 90 94 90 90 90 90 90 90 90 90 84 87 84 81 81 71 77 81 74 58 71 65 68 58 61
0 0 0 0 0 0 6 6 10 10 10 10 16 35 35 39 52 48 48 55 68 68 87 84 87 87 87 84 90 90 90 90 87 87 84 84 84 71 74 71 68 68 65 68 68 68 71 61 58
0 0 0 0 0 0 6 10 16 13 10 13 13 26 39 45 48 52 52 48 65 71 87 84 87 87 87 84 87 84 84 87 87 84 81 84 84 74 71 65 61 58 55 58 68 65 61 65 55
0 0 0 0 0 0 0 10 10 32 23 19 16 29 32 39 52 52 55 58 71 71 77 84 87 87 87 84 84 84 84 81 84 84 77 81 81 74 68 65 58 55 58 58 58 61 58 58 52
0 0 0 0 6 3 0 6 10 13 13 19 19 39 39 45 42 48 52 58 61 65 68 74 84 84 81 81 81 81 81 81 77 81 84 87 71 68 65 65 68 55 55 58 58 58 55 55 52
Height
5877 5877 5877 5877 5876 5876 5876 5875 5874 5874 5873 5873 5872 5872 5872 5872 5873 5875 5872 5872 5872 5872 5872 5872 5873 5873 5873 5872 5873 5874 5874 5874 5874 5875 5875 5876 5876 5877 5878 5880 5881 5883 5884 5885 5886 5888 5889 5890 5891
5881 5880 5879 5878 5879 5879 5879 5877 5876 5876 5875 5874 5874 5874 5873 5873 5873 5874 5873 5873 5873 5873 5873 5873 5873 5874 5873 5873 5873 5874 5875 5875 5875 5876 5876 5877 5878 5879 5880 5881 5883 5884 5885 5886 5887 5888 5889 5890 5892
5883 5881 5880 5881 5882 5882 5881 5880 5878 5878 5877 5876 5876 5876 5875 5875 5875 5874 5874 5875 5875 5875 5874 5874 5875 5875 5875 5874 5875 5875 5876 5876 5877 5877 5878 5879 5880 5881 5882 5883 5884 5885 5886 5887 5888 5889 5890 5891 5892
5885 5882 5882 5885 5885 5885 5883 5882 5880 5880 5879 5878 5878 5877 5876 5876 5876 5876 5876 5876 5876 5876 5876 5876 5876 5877 5876 5876 5876 5877 5877 5878 5878 5879 5879 5880 5881 5882 5883 5884 5885 5886 5887 5887 5888 5889 5890 5892 5893
5887 5885 5886 5889 5888 5887 5885 5884 5883 5882 5881 5880 5880 5879 5878 5878 5877 5877 5877 5877 5878 5878 5878 5877 5878 5878 5878 5878 5878 5878 5879 5880 5880 5881 5881 5882 5883 5883 5884 5885 5886 5887 5887 5887 5888 5889 5891 5892 5893
5888 5888 5891 5892 5891 5890 5888 5886 5885 5884 5883 5882 5882 5881 5881 5880 5879 5879 5879 5879 5879 5879 5879 5879 5879 5879 5880 5880 5880 5880 5880 5881 5882 5882 5883 5883 5884 5885 5885 5886 5887 5887 5887 5887 5887 5889 5891 5892 5893
5891 5892 5895 5896 5894 5892 5891 5889 5888 5886 5885 5885 5884 5883 5883 5882 5881 5881 5881 5881 5881 5881 5881 5880 5880 5881 5881 5881 5881 5882 5882 5883 5883 5884 5884 5885 5885 5886 5886 5887 5887 5888 5888 5888 5889 5890 5892 5893 5893
5896 5897 5899 5899 5897 5895 5893 5891 5890 5888 5887 5887 5886 5886 5885 5884 5884 5883 5882 5882 5882 5882 5882 5882 5882 5882 5883 5883 5883 5883 5884 5884 5884 5885 5885 5886 5886 5887 5887 5888 5888 5889 5889 5890 5890 5891 5892 5893 5893
5901 5902 5901 5901 5899 5897 5895 5893 5892 5890 5890 5889 5888 5888 5887 5886 5885 5885 5884 5884 5884 5884 5884 5884 5884 5884 5884 5884 5885 5885 5885 5885 5885 5886 5886 5887 5888 5888 5889 5889 5889 5890 5890 5891 5891 5892 5893 5893 5893
5904 5904 5904 5903 5901 5899 5897 5896 5894 5893 5892 5891 5890 5889 5889 5888 5887 5887 5886 5886 5886 5886 5885 5885 5885 5885 5886 5886 5886 5886 5886 5887 5887 5887 5887 5888 5889 5890 5890 5890 5891 5891 5891 5892 5892 5892 5893 5893 5893
5908 5908 5907 5905 5903 5902 5899 5898 5896 5895 5894 5893 5892 5892 5891 5890 5889 5889 5888 5888 5888 5887 5887 5887 5887 5886 5886 5887 5887 5887 5887 5887 5887 5888 5888 5889 5890 5890 5890 5891 5891 5892 5892 5892 5892 5893 5893 5893 5893
5910 5910 5909 5907 5905 5904 5902 5901 5899 5897 5897 5896 5895 5894 5893 5892 5891 5891 5890 5890 5890 5889 5889 5888 5888 5888 5888 5888 5888 5888 5888 5888 5888 5889 5889 5890 5890 5891 5891 5891 5892 5892 5892 5892 5892 5892 5893 5893 5893
5912 5911 5910 5909 5907 5906 5904 5903 5901 5900 5899 5898 5897 5896 5895 5894 5893 5892 5892 5892 5891 5891 5890 5890 5890 5889 5889 5889 5889 5889 5889 5889 5889 5889 5889 5890 5890 5891 5891 5892 5892 5892 5892 5892 5892 5892 5892 5893 5893
5912 5912 5912 5911 5910 5908 5907 5905 5904 5903 5902 5900 5899 5898 5897 5896 5895 5894 5893 5893 5893 5893 5892 5891 5891 5891 5890 5890 5890 5889 5889 5889 5889 5889 5889 5890 5890 5891 5891 5891 5892 5892 5892 5892 5892 5892 5892 5892 5892
5912 5913 5913 5912 5911 5910 5909 5908 5907 5905 5904 5903 5901 5900 5899 5898 5896 5896 5895 5894 5894 5894 5894 5893 5893 5892 5891 5891 5891 5890 5890 5889 5889 5888 5889 5890 5890 5891 5891 5891 5892 5892 5892 5892 5892 5892 5892 5892 5891
5912 5913 5914 5913 5912 5912 5912 5910 5908 5907 5906 5905 5903 5902 5901 5900 5898 5897 5896 5896 5895 5895 5895 5895 5894 5893 5893 5892 5892 5891 5890 5889 5889 5888 5889 5889 5890 5891 5891 5891 5891 5891 5891 5891 5891 5891 5891 5891 5891
5914 5915 5915 5915 5914 5914 5913 5911 5910 5908 5907 5906 5905 5904 5903 5901 5900 5899 5898 5898 5897 5897 5896 5896 5895 5895 5894 5893 5893 5892 5891 5890 5889 5889 5889 5889 5890 5891 5891 5891 5891 5891 5891 5891 5891 5891 5891 5890 5890
5914 5915 5916 5916 5916 5916 5914 5913 5911 5910 5908 5908 5907 5906 5904 5903 5902 5901 5900 5899 5899 5898 5897 5897 5897 5896 5895 5894 5894 5893 5892 5891 5890 5890 5890 5890 5891 5891 5891 5891 5891 5891 5891 5891 5890 5890 5890 5889 5889
5914 5915 5916 5916 5916 5917 5916 5914 5912 5911 5910 5909 5908 5907 5906 5905 5904 5902 5901 5900 5900 5899 5898 5898 5898 5897 5896 5895 5894 5894 5893 5892 5892 5891 5891 5891 5891 5891 5891 5890 5890 5890 5890 5890 5890 5889 5889 5889 5888
5915 5916 5916 5917 5917 5917 5916 5913 5912 5911 5911 5910 5909 5908 5907 5906 5905 5904 5903 5901 5901 5900 5899 5899 5898 5898 5897 5896 5895 5894 5894 5893 5893 5892 5892 5891 5891 5891 5890 5890 5890 5890 5889 5889 5889 5888 5888 5888 5887
5915 5916 5916 5917 5916 5915 5915 5914 5911 5911 5910 5910 5909 5908 5907 5906 5905 5904 5903 5902 5901 5900 5900 5900 5899 5898 5898 5897 5896 5895 5895 5894 5894 5893 5892 5892 5891 5891 5890 5890 5890 5889 5889 5888 5888 5887 5887 5886 5886
5913 5915 5915 5915 5915 5915 5915 5913 5911 5910 5909 5909 5909 5908 5907 5907 5905 5904 5903 5903 5902 5901 5901 5900 5900 5899 5898 5898 5897 5896 5895 5894 5894 5894 5893 5892 5892 5891 5890 5890 5889 5889 5888 5887 5887 5886 5885 5885 5884
5911 5913 5913 5913 5914 5913 5913 5913 5911 5909 5909 5909 5908 5908 5907 5906 5905 5904 5903 5903 5902 5902 5901 5900 5900 5899 5899 5898 5897 5896 5895 5895 5894 5894 5893 5893 5892 5891 5890 5889 5889 5888 5887 5886 5886 5885 5884 5883 5882
5908 5910 5910 5911 5912 5912 5912 5913 5910 5907 5907 5908 5907 5906 5906 5905 5905 5904 5904 5903 5902 5902 5901 5901 5900 5900 5899 5898 5897 5896 5896 5895 5894 5894 5893 5892 5892 5891 5890 5889 5888 5887 5886 5885 5884 5883 5883 5882 5881
5905 5907 5908 5908 5909 5910 5910 5911 5910 5908 5907 5907 5906 5906 5905 5905 5904 5903 5903 5902 5901 5901 5900 5900 5900 5899 5899 5898 5897 5896 5895 5895 5894 5894 5893 5892 5891 5890 5889 5888 5887 5886 5885 5884 5883 5882 5881 5880 5879
5901 5904 5905 5907 5907 5908 5908 5908 5908 5907 5907 5906 5905 5903 5903 5904 5903 5902 5902 5901 5900 5900 5899 5899 5899 5898 5898 5897 5896 5895 5895 5894 5893 5892 5891 5891 5890 5889 5887 5886 5885 5884 5883 5882 5881 5880 5879 5878 5877
5897 5899 5902 5904 5904 5905 5904 5904 5905 5905 5904 5904 5903 5903 5902 5901 5901 5901 5900 5900 5899 5899 5898 5898 5897 5897 5896 5896 5895 5894 5893 5892 5892 5891 5890 5889 5888 5887 5886 5885 5883 5882 5881 5880 5879 5878 5877 5876 5874
5893 5896 5899 5900 5901 5901 5901 5901 5902 5902 5902 5902 5901 5900 5899 5899 5899 5899 5898 5898 5897 5897 5896 5896 5896 5895 5895 5894 5893 5892 5892 5891 5890 5889 5888 5887 5886 5884 5883 5882 5881 5880 5878 5877 5876 5875 5874 5873 5871
5889 5891 5893 5895 5897 5899 5898 5899 5896 5897 5899 5898 5898 5897 5897 5897 5897 5896 5896 5895 5895 5894 5894 5894 5894 5893 5893 5892 5891 5891 5890 5889 5887 5887 5886 5884 5883 5882 5880 5879 5878 5876 5875 5874 5873 5871 5870 5869 5868
5884 5886 5889 5891 5892 5893 5894 5898 5893 5892 5894 5893 5894 5894 5894 5894 5894 5894 5893 5893 5892 5892 5892 5891 5891 5890 5890 5889 5889 5888 5887 5886 5885 5884 5883 5882 5880 5879 5878 5876 5875 5873 5872 5870 5869 5868 5867 5865 5864
Wind_Speed
16 16 16 15 16 14 10 8 6 5 5 4 3 2 3 3 3 2 2 2 2 3 3 3 4 4 4 4 5 5 5 6 7 6 7 7 7 7 8 8 8 8 8 8 7 7 7 7 8
17 16 18 19 17 12 10 8 7 6 5 5 4 3 3 3 3 2 2 2 3 3 4 4 4 4 4 5 5 6 6 6 6 6 6 7 6 6 7 7 8 8 8 7 7 7 7 7 6
17 17 21 19 15 11 10 9 8 7 6 6 5 4 4 4 4 3 3 3 4 4 5 5 4 4 5 6 6 6 6 6 5 6 6 6 6 6 6 6 7 7 7 7 7 7 7 6 5
17 21 22 18 13 12 10 10 9 8 8 8 7 6 5 5 4 4 4 4 5 5 5 5 5 5 5 6 7 7 6 5 5 6 6 5 6 6 6 5 5 6 6 6 5 5 6 5 4
19 22 21 15 13 12 11 9 8 8 8 8 8 8 7 6 5 5 4 5 5 5 5 5 5 5 5 6 7 7 6 5 5 5 6 6 5 5 5 4 5 4 4 4 4 5 5 4 4
20 20 18 13 12 12 11 10 9 7 7 8 8 8 8 7 6 6 5 5 5 6 6 5 5 5 5 5 5 5 5 5 5 5 5 5 4 4 4 4 3 3 2 2 3 4 4 3 3
18 20 16 11 11 12 11 10 9 8 8 8 8 8 8 8 7 6 6 5 5 6 6 5 5 5 5 5 4 4 4 4 4 4 4 4 4 4 3 3 2 2 2 2 2 2 2 2 1
16 17 13 10 10 11 10 10 9 9 9 9 9 8 8 8 7 7 7 6 6 5 5 5 5 4 4 4 4 4 4 4 3 3 3 3 3 3 2 1 2 2 2 2 1 1 1 1 1
14 14 11 10 10 11 11 11 9 10 9 9 9 9 8 8 7 7 8 7 7 6 5 5 4 4 4 3 3 3 3 3 3 3 3 3 3 2 2 2 2 2 2 2 1 1 0 1 2
11 13 11 10 11 10 11 11 10 10 9 9 9 9 9 9 8 7 7 7 7 6 5 4 4 4 4 3 2 2 2 2 2 2 2 2 2 1 1 1 1 2 1 1 1 0 1 2 3
9 8 8 9 10 10 11 11 10 9 10 10 10 9 9 9 8 8 7 7 7 7 6 6 5 4 4 4 3 2 1 1 1 2 2 1 1 1 1 1 1 0 0 0 0 1 2 3 4
6 8 8 9 11 11 11 12 11 10 10 10 10 10 10 10 9 8 7 7 7 7 7 7 6 5 5 4 3 3 2 2 2 1 1 1 1 2 1 1 1 1 1 2 3 3 3 3 4
6 6 8 10 11 12 12 11 11 11 10 10 9 10 10 10 9 8 7 7 7 7 7 6 6 5 4 4 3 2 2 1 0 0 0 0 1 1 1 1 2 2 2 3 4 4 4 4 5
4 5 7 9 10 11 11 11 10 11 11 10 10 10 10 10 10 9 8 8 7 7 7 6 6 5 5 4 3 2 2 1 1 1 0 0 1 2 2 2 2 3 3 4 4 4 5 5 6
3 3 5 7 9 10 9 10 11 10 10 11 10 10 10 10 10 9 9 8 7 7 6 6 6 6 6 5 4 4 3 3 2 1 0 1 1 2 3 2 2 3 4 4 4 4 5 5 6
1 2 4 5 7 9 9 10 10 10 9 10 11 11 10 9 9 9 9 8 8 7 6 6 6 6 6 5 5 5 4 4 3 2 1 2 2 2 3 3 3 4 4 5 5 5 5 6 7
0 3 4 4 5 7 8 10 9 10 9 8 8 10 11 10 10 10 9 9 8 8 7 6 6 6 7 6 6 5 5 4 3 2 2 2 2 3 3 4 4 4 5 5 5 5 6 6 7
3 3 4 5 3 5 7 8 10 10 9 9 8 9 9 10 9 9 9 9 8 8 7 7 6 6 7 7 7 6 5 4 4 2 2 2 2 3 4 5 5 5 5 6 6 6 7 7 7
4 4 4 5 3 3 6 8 9 10 9 8 8 8 9 9 8 8 8 8 8 8 7 7 6 6 7 7 7 6 5 5 5 3 3 2 3 4 4 5 5 6 6 6 7 7 7 7 7
7 6 5 5 4 4 5 7 8 10 10 10 9 8 8 8 8 8 8 8 8 7 6 6 6 7 7 8 8 7 6 6 6 5 4 4 4 5 5 6 6 7 7 7 7 7 7 7 8
10 8 7 7 7 6 7 8 9 9 8 8 9 9 9 9 8 7 7 8 8 7 6 7 7 8 8 8 8 8 7 6 6 7 6 5 5 6 6 6 6 7 7 7 7 7 8 8 9
11 9 9 9 8 8 8 10 11 10 8 9 9 9 10 8 8 8 7 7 7 7 6 7 7 8 8 8 8 8 7 7 7 7 7 6 6 6 6 6 7 7 8 7 8 8 8 9 9
12 11 11 10 10 11 9 11 13 12 11 11 10 9 10 9 8 8 8 8 7 7 6 6 8 8 8 8 8 8 8 7 8 8 7 7 7 7 7 7 7 8 8 9 9 9 9 10 10
14 13 13 12 12 12 11 11 15 15 12 12 11 9 9 9 9 8 8 8 7 7 6 6 7 8 8 8 9 8 8 8 9 8 8 8 8 8 8 8 8 9 9 10 10 10 10 11 11
16 15 14 12 11 12 10 11 14 16 14 14 12 9 8 9 9 8 7 7 8 7 6 7 7 8 8 8 9 9 9 9 9 9 8 9 9 9 10 10 10 11 11 11 12 12 12 12 12
17 16 15 14 14 13 12 14 14 13 14 15 14 12 9 10 9 9 8 8 8 8 8 8 8 9 10 10 10 10 9 9 9 9 10 10 10 11 11 11 12 12 13 13 13 13 13 13 13
18 18 16 16 15 15 15 14 14 14 14 14 13 12 12 11 11 10 9 9 9 8 8 9 9 10 10 11 11 11 10 10 10 10 11 11 12 12 13 13 13 14 14 14 13 13 13 14 14
19 18 18 19 16 17 17 17 16 14 14 14 15 14 13 12 12 11 11 10 10 10 9 10 10 11 11 12 12 12 12 11 11 12 13 13 13 14 14 14 15 15 15 15 15 15 16 16 16
19 19 20 19 18 18 17 17 15 14 16 15 15 15 13 13 13 12 11 11 11 11 11 11 11 12 12 12 13 13 13 13 13 14 15 16 16 16 16 16 16 16 16 17 17 18 18 18 17
20 20 20 20 21 20 19 19 18 16 17 16 15 15 15 14 14 13 12 12 12 13 12 12 12 13 13 13 13 14 14 15 15 15 16 17 17 17 17 17 18 18 18 18 19 19 20 20 19
Wind_Direction
74 72 70 68 55 50 47 44 53 62 71 78 82 89 92 89 102 115 106 107 113 120 121 123 134 134 133 146 153 154 145 140 148 150 149 148 147 149 152 160 161 158 156 155 155 153 150 150 153
72 72 66 58 54 45 37 41 52 61 59 64 68 72 80 79 84 91 93 90 98 99 96 98 121 119 115 128 144 150 143 145 144 150 143 142 146 147 147 152 158 160 160 155 159 164 159 156 159
75 71 63 57 49 39 35 40 53 55 57 57 62 67 74 70 70 79 90 92 93 90 91 90 97 107 114 126 136 140 135 143 142 145 147 148 152 156 149 149 157 159 158 161 166 166 162 164 167
72 67 62 55 40 32 34 40 52 54 55 56 59 62 71 73 68 67 75 91 86 88 88 90 92 98 106 118 130 136 137 142 141 140 145 150 151 149 148 154 159 161 164 166 170 174 174 171 172
74 65 60 48 32 31 35 41 51 55 51 51 55 58 63 67 64 63 71 82 86 86 80 80 87 95 98 108 117 129 135 141 140 142 145 139 137 137 147 151 150 156 167 173 183 177 181 189 194
72 65 56 41 27 31 30 38 45 49 47 46 50 54 57 59 59 62 64 72 85 87 81 78 80 80 83 88 99 106 118 126 133 133 131 130 132 146 148 144 146 162 160 161 165 169 175 201 216
66 66 61 39 21 32 36 40 44 48 51 48 50 52 54 54 56 59 61 68 81 84 80 78 77 81 88 94 96 96 103 114 123 130 128 127 128 141 152 145 143 150 146 140 143 166 198 211 210
62 63 60 39 23 29 37 45 51 56 57 53 53 52 53 55 59 59 60 69 76 77 77 79 76 77 82 87 87 93 97 106 112 118 123 115 118 121 124 131 119 119 126 120 123 152 202 234 264
55 59 55 38 27 30 38 45 50 55 55 55 56 57 53 54 58 59 60 65 70 71 72 71 69 76 75 71 74 84 94 109 107 108 116 115 119 115 102 83 95 100 119 115 108 134 229 259 269
45 48 46 35 33 34 35 42 46 53 54 53 54 51 51 52 56 59 58 61 60 62 62 66 70 73 63 58 59 52 76 104 107 110 116 116 107 83 75 51 77 76 74 109 129 265 305 295 290
54 52 48 40 43 42 37 42 48 52 52 53 52 50 49 48 48 52 54 58 56 53 53 56 64 65 60 54 55 51 54 93 106 109 107 96 85 54 57 43 48 75 359 241 209 329 321 305 298
61 58 53 44 44 45 42 40 46 47 47 48 47 49 49 48 45 45 46 50 52 48 47 54 61 67 70 62 52 50 59 68 80 105 80 71 35 12 24 35 21 336 322 305 301 315 314 302 293
67 51 46 45 41 40 41 41 40 42 41 40 40 43 46 50 44 40 42 45 47 47 49 57 51 56 61 62 47 40 50 48 1 190 149 83 355 347 343 349 338 322 318 316 311 315 313 305 302
89 64 44 37 34 33 37 37 38 36 34 34 34 34 39 46 44 42 43 45 49 47 49 51 47 41 42 43 35 30 32 29 304 283 264 278 331 330 323 316 313 321 328 329 323 319 322 315 312
87 64 38 34 27 24 29 32 31 32 29 32 33 31 35 40 40 41 40 44 46 44 45 44 41 39 40 37 30 25 23 8 338 312 315 314 317 322 324 320 320 325 330 331 330 324 321 321 320
113 16 359 15 23 13 10 16 22 24 28 29 31 30 29 32 33 37 39 40 40 40 37 32 35 36 35 33 28 23 17 8 0 353 333 314 312 319 314 310 310 317 323 321 319 315 318 320 319
18 304 310 331 8 6 357 353 11 14 15 25 28 26 25 24 26 32 34 34 34 33 32 33 35 32 29 26 22 21 16 11 6 357 331 307 300 311 313 310 305 308 310 312 313 315 314 317 316
216 229 283 303 356 347 345 343 349 3 6 11 16 20 20 19 19 21 23 23 23 25 30 32 32 33 31 26 24 26 21 17 13 3 336 307 301 312 318 317 308 302 304 306 308 310 313 317 314
232 240 276 297 326 331 332 332 339 351 358 0 5 9 11 13 15 16 17 17 20 20 27 29 27 25 23 23 23 27 26 21 21 15 2 337 318 318 317 317 313 304 303 306 307 306 307 314 316
240 251 268 276 282 290 291 307 324 342 349 356 354 355 359 3 6 7 10 13 17 21 22 22 19 16 20 21 20 19 22 19 15 10 360 349 336 331 323 320 321 315 308 308 311 309 310 308 312
230 236 253 258 267 277 281 296 303 322 337 341 343 349 352 354 356 357 358 5 11 13 15 13 16 17 16 14 16 18 16 16 14 9 0 347 341 335 331 326 325 323 319 312 310 309 309 309 308
232 236 251 254 261 277 288 294 293 307 320 328 331 341 349 352 345 346 350 352 358 2 2 4 5 7 10 11 10 8 3 5 6 4 0 352 346 343 338 336 329 325 321 313 310 310 312 311 313
235 238 246 251 254 264 268 281 294 300 308 315 320 327 336 345 344 339 345 345 349 350 349 355 359 358 358 358 357 356 355 359 2 359 353 348 345 343 338 333 330 329 328 323 319 317 316 313 312
230 239 245 245 249 258 258 262 281 290 300 304 311 313 323 331 335 336 336 337 341 341 344 345 346 347 347 346 345 346 348 349 350 350 349 347 343 339 336 331 327 323 322 322 321 316 314 313 311
228 235 246 250 248 261 265 261 274 288 295 297 298 299 312 318 323 331 335 332 331 330 327 331 333 335 337 337 336 335 334 332 333 335 335 335 334 331 326 323 320 318 317 316 317 317 314 313 312
231 233 238 247 259 266 258 250 262 273 284 290 295 296 301 306 313 319 324 325 325 323 319 317 321 324 327 328 330 329 327 325 326 327 325 325 322 321 321 319 315 313 313 312 312 313 314 314 313
231 234 239 246 251 260 263 263 263 269 278 282 287 287 290 298 304 306 310 311 311 311 310 307 310 315 319 322 323 325 325 325 323 320 319 319 315 312 311 311 311 311 311 310 310 310 310 310 309
230 231 236 236 246 259 262 263 262 272 277 277 279 281 282 295 298 301 302 304 304 304 302 303 305 308 310 313 315 317 319 320 317 314 314 312 310 310 309 308 308 309 308 306 306 305 304 307 308
232 228 229 234 236 249 261 260 264 263 273 272 273 278 285 288 293 298 301 300 299 299 299 300 301 302 305 307 309 311 312 314 313 313 312 312 310 309 310 310 309 308 307 305 303 302 303 305 304
238 232 231 237 239 237 249 263 266 265 270 273 272 276 278 278 283 287 292 293 294 295 295 296 298 298 300 303 307 308 309 310 308 309 311 309 309 308 307 308 307 307 307 306 304 303 303 304 302